Year,Month,Day,Hour,Minute,Value (Times are PST for temperature in C)
2014,09,21,00,00,10.50
2014,09,21,00,01,10.40
2014,09,21,00,02,10.40
2014,09,21,00,03,10.40
2014,09,21,00,04,10.40
2014,09,21,00,05,10.30
2014,09,21,00,06,10.30
2014,09,21,00,07,10.30
2014,09,21,00,08,10.30
2014,09,21,00,09,10.30
2014,09,21,00,10,10.30
2014,09,21,00,11,10.30
2014,09,21,00,12,10.20
2014,09,21,00,13,10.20
2014,09,21,00,14,10.20
2014,09,21,00,15,10.20
2014,09,21,00,16,10.20
2014,09,21,00,17,10.20
2014,09,21,00,18,10.20
2014,09,21,00,19,10.30
2014,09,21,00,20,10.30
2014,09,21,00,21,10.30
2014,09,21,00,22,10.30
2014,09,21,00,23,10.30
2014,09,21,00,24,10.20
2014,09,21,00,25,10.20
2014,09,21,00,26,10.20
2014,09,21,00,27,10.20
2014,09,21,00,28,10.20
2014,09,21,00,29,10.20
2014,09,21,00,30,10.20
2014,09,21,00,31,10.20
2014,09,21,00,32,10.20
2014,09,21,00,33,10.10
2014,09,21,00,34,10.10
2014,09,21,00,35,10.10
2014,09,21,00,36,10.10
2014,09,21,00,37,10.10
2014,09,21,00,38,10.10
2014,09,21,00,39,10.10
2014,09,21,00,40,10.10
2014,09,21,00,41,10.10
2014,09,21,00,42,10.10
2014,09,21,00,43,10.10
2014,09,21,00,44,10.10
2014,09,21,00,45,10.10
2014,09,21,00,46,10.10
2014,09,21,00,47,10.10
2014,09,21,00,48,10.00
2014,09,21,00,49,10.10
2014,09,21,00,50,10.10
2014,09,21,00,51,10.10
2014,09,21,00,52,10.00
2014,09,21,00,53,10.00
2014,09,21,00,54,10.00
2014,09,21,00,55,10.00
2014,09,21,00,56,10.00
2014,09,21,00,57,10.00
2014,09,21,00,58,9.90
2014,09,21,00,59,9.90
2014,09,21,01,00,9.90
2014,09,21,01,01,9.80
2014,09,21,01,02,9.80
2014,09,21,01,03,9.80
2014,09,21,01,04,9.70
2014,09,21,01,05,9.70
2014,09,21,01,06,9.70
2014,09,21,01,07,9.70
2014,09,21,01,08,9.70
2014,09,21,01,09,9.70
2014,09,21,01,10,9.70
2014,09,21,01,11,9.70
2014,09,21,01,12,9.60
2014,09,21,01,13,9.60
2014,09,21,01,14,9.60
2014,09,21,01,15,9.50
2014,09,21,01,16,9.50
2014,09,21,01,17,9.50
2014,09,21,01,18,9.50
2014,09,21,01,19,9.40
2014,09,21,01,20,9.40
2014,09,21,01,21,9.40
2014,09,21,01,22,9.50
2014,09,21,01,23,9.50
2014,09,21,01,24,9.50
2014,09,21,01,25,9.60
2014,09,21,01,26,9.60
2014,09,21,01,27,9.60
2014,09,21,01,28,9.60
2014,09,21,01,29,9.60
2014,09,21,01,30,9.60
2014,09,21,01,31,9.60
2014,09,21,01,32,9.60
2014,09,21,01,33,9.60
2014,09,21,01,34,9.60
2014,09,21,01,35,9.60
2014,09,21,01,36,9.60
2014,09,21,01,37,9.60
2014,09,21,01,38,9.60
2014,09,21,01,39,9.50
2014,09,21,01,40,9.50
2014,09,21,01,41,9.40
2014,09,21,01,42,9.30
2014,09,21,01,43,9.30
2014,09,21,01,44,9.30
2014,09,21,01,45,9.30
2014,09,21,01,46,9.30
2014,09,21,01,47,9.30
2014,09,21,01,48,9.30
2014,09,21,01,49,9.30
2014,09,21,01,50,9.30
2014,09,21,01,51,9.30
2014,09,21,01,52,9.30
2014,09,21,01,53,9.30
2014,09,21,01,54,9.20
2014,09,21,01,55,9.20
2014,09,21,01,56,9.20
2014,09,21,01,57,9.20
2014,09,21,01,58,9.20
2014,09,21,01,59,9.20
2014,09,21,02,00,9.20
2014,09,21,02,01,9.20
2014,09,21,02,02,9.20
2014,09,21,02,03,9.20
2014,09,21,02,04,9.10
2014,09,21,02,05,9.10
2014,09,21,02,06,9.10
2014,09,21,02,07,9.10
2014,09,21,02,08,9.10
2014,09,21,02,09,9.10
2014,09,21,02,10,9.10
2014,09,21,02,11,9.10
2014,09,21,02,12,9.10
2014,09,21,02,13,9.10
2014,09,21,02,14,9.10
2014,09,21,02,15,9.10
2014,09,21,02,16,9.10
2014,09,21,02,17,9.00
2014,09,21,02,18,9.00
2014,09,21,02,19,9.00
2014,09,21,02,20,9.00
2014,09,21,02,21,9.00
2014,09,21,02,22,9.00
2014,09,21,02,23,9.00
2014,09,21,02,24,9.00
2014,09,21,02,25,9.00
2014,09,21,02,26,9.00
2014,09,21,02,27,9.00
2014,09,21,02,28,9.10
2014,09,21,02,29,9.10
2014,09,21,02,30,9.10
2014,09,21,02,31,9.10
2014,09,21,02,32,9.10
2014,09,21,02,33,9.10
2014,09,21,02,34,9.10
2014,09,21,02,35,9.20
2014,09,21,02,36,9.20
2014,09,21,02,37,9.20
2014,09,21,02,38,9.20
2014,09,21,02,39,9.20
2014,09,21,02,40,9.30
2014,09,21,02,41,9.30
2014,09,21,02,42,9.30
2014,09,21,02,43,9.30
2014,09,21,02,44,9.30
2014,09,21,02,45,9.30
2014,09,21,02,46,9.20
2014,09,21,02,47,9.20
2014,09,21,02,48,9.20
2014,09,21,02,49,9.10
2014,09,21,02,50,9.10
2014,09,21,02,51,9.10
2014,09,21,02,52,9.10
2014,09,21,02,53,9.10
2014,09,21,02,54,9.00
2014,09,21,02,55,9.00
2014,09,21,02,56,9.00
2014,09,21,02,57,9.00
2014,09,21,02,58,8.90
2014,09,21,02,59,8.90
2014,09,21,03,00,8.80
2014,09,21,03,01,8.80
2014,09,21,03,02,8.80
2014,09,21,03,03,8.80
2014,09,21,03,04,8.80
2014,09,21,03,05,8.80
2014,09,21,03,06,8.80
2014,09,21,03,07,8.80
2014,09,21,03,08,8.70
2014,09,21,03,09,8.70
2014,09,21,03,10,8.60
2014,09,21,03,11,8.50
2014,09,21,03,12,8.40
2014,09,21,03,13,8.40
2014,09,21,03,14,8.30
2014,09,21,03,15,8.30
2014,09,21,03,16,8.30
2014,09,21,03,17,8.30
2014,09,21,03,18,8.30
2014,09,21,03,19,8.30
2014,09,21,03,20,8.30
2014,09,21,03,21,8.30
2014,09,21,03,22,8.30
2014,09,21,03,23,8.40
2014,09,21,03,24,8.40
2014,09,21,03,25,8.40
2014,09,21,03,26,8.50
2014,09,21,03,27,8.50
2014,09,21,03,28,8.50
2014,09,21,03,29,8.60
2014,09,21,03,30,8.60
2014,09,21,03,31,8.60
2014,09,21,03,32,8.70
2014,09,21,03,33,8.70
2014,09,21,03,34,8.70
2014,09,21,03,35,8.70
2014,09,21,03,36,8.60
2014,09,21,03,37,8.60
2014,09,21,03,38,8.60
2014,09,21,03,39,8.60
2014,09,21,03,40,8.60
2014,09,21,03,41,8.60
2014,09,21,03,42,8.60
2014,09,21,03,43,8.60
2014,09,21,03,44,8.60
2014,09,21,03,45,8.60
2014,09,21,03,46,8.60
2014,09,21,03,47,8.60
2014,09,21,03,48,8.60
2014,09,21,03,49,8.60
2014,09,21,03,50,8.60
2014,09,21,03,51,8.60
2014,09,21,03,52,8.60
2014,09,21,03,53,8.60
2014,09,21,03,54,8.60
2014,09,21,03,55,8.60
2014,09,21,03,56,8.60
2014,09,21,03,57,8.60
2014,09,21,03,58,8.60
2014,09,21,03,59,8.60
2014,09,21,04,00,8.60
2014,09,21,04,01,8.60
2014,09,21,04,02,8.60
2014,09,21,04,03,8.60
2014,09,21,04,04,8.60
2014,09,21,04,05,8.60
2014,09,21,04,06,8.60
2014,09,21,04,07,8.50
2014,09,21,04,08,8.40
2014,09,21,04,09,8.30
2014,09,21,04,10,8.30
2014,09,21,04,11,8.20
2014,09,21,04,12,8.20
2014,09,21,04,13,8.10
2014,09,21,04,14,8.10
2014,09,21,04,15,8.10
2014,09,21,04,16,8.00
2014,09,21,04,17,7.90
2014,09,21,04,18,7.90
2014,09,21,04,19,7.90
2014,09,21,04,20,7.90
2014,09,21,04,21,7.90
2014,09,21,04,22,7.90
2014,09,21,04,23,7.90
2014,09,21,04,24,7.90
2014,09,21,04,25,7.90
2014,09,21,04,26,7.90
2014,09,21,04,27,7.90
2014,09,21,04,28,7.90
2014,09,21,04,29,7.90
2014,09,21,04,30,7.90
2014,09,21,04,31,7.90
2014,09,21,04,32,8.00
2014,09,21,04,33,8.00
2014,09,21,04,34,8.00
2014,09,21,04,35,8.10
2014,09,21,04,36,8.10
2014,09,21,04,37,8.10
2014,09,21,04,38,8.10
2014,09,21,04,39,8.10
2014,09,21,04,40,8.10
2014,09,21,04,41,8.20
2014,09,21,04,42,8.20
2014,09,21,04,43,8.20
2014,09,21,04,44,8.20
2014,09,21,04,45,8.20
2014,09,21,04,46,8.20
2014,09,21,04,47,8.20
2014,09,21,04,48,8.20
2014,09,21,04,49,8.20
2014,09,21,04,50,8.10
2014,09,21,04,51,8.10
2014,09,21,04,52,8.00
2014,09,21,04,53,8.00
2014,09,21,04,54,8.00
2014,09,21,04,55,8.00
2014,09,21,04,56,8.00
2014,09,21,04,57,8.00
2014,09,21,04,58,8.10
2014,09,21,04,59,8.10
2014,09,21,05,00,8.10
2014,09,21,05,01,8.10
2014,09,21,05,02,8.10
2014,09,21,05,03,8.10
2014,09,21,05,04,8.10
2014,09,21,05,05,8.10
2014,09,21,05,06,8.20
2014,09,21,05,07,8.20
2014,09,21,05,08,8.20
2014,09,21,05,09,8.20
2014,09,21,05,10,8.20
2014,09,21,05,11,8.20
2014,09,21,05,12,8.20
2014,09,21,05,13,8.20
2014,09,21,05,14,8.20
2014,09,21,05,15,8.10
2014,09,21,05,16,8.10
2014,09,21,05,17,8.10
2014,09,21,05,18,8.00
2014,09,21,05,19,8.00
2014,09,21,05,20,7.90
2014,09,21,05,21,7.90
2014,09,21,05,22,7.90
2014,09,21,05,23,7.80
2014,09,21,05,24,7.80
2014,09,21,05,25,7.80
2014,09,21,05,26,7.80
2014,09,21,05,27,7.80
2014,09,21,05,28,7.80
2014,09,21,05,29,7.90
2014,09,21,05,30,7.90
2014,09,21,05,31,7.90
2014,09,21,05,32,7.90
2014,09,21,05,33,7.90
2014,09,21,05,34,7.90
2014,09,21,05,35,7.90
2014,09,21,05,36,7.80
2014,09,21,05,37,7.80
2014,09,21,05,38,7.80
2014,09,21,05,39,7.80
2014,09,21,05,40,7.80
2014,09,21,05,41,7.80
2014,09,21,05,42,7.80
2014,09,21,05,43,7.80
2014,09,21,05,44,7.80
2014,09,21,05,45,7.80
2014,09,21,05,46,7.90
2014,09,21,05,47,7.80
2014,09,21,05,48,7.80
2014,09,21,05,49,7.90
2014,09,21,05,50,7.90
2014,09,21,05,51,7.90
2014,09,21,05,52,7.90
2014,09,21,05,53,7.90
2014,09,21,05,54,7.90
2014,09,21,05,55,7.90
2014,09,21,05,56,7.90
2014,09,21,05,57,7.90
2014,09,21,05,58,7.90
2014,09,21,05,59,7.90
2014,09,21,06,00,7.90
2014,09,21,06,01,7.90
2014,09,21,06,02,7.90
2014,09,21,06,03,7.90
2014,09,21,06,04,7.90
2014,09,21,06,05,7.90
2014,09,21,06,06,7.90
2014,09,21,06,07,7.90
2014,09,21,06,08,7.90
2014,09,21,06,09,7.80
2014,09,21,06,10,7.80
2014,09,21,06,11,7.80
2014,09,21,06,12,7.80
2014,09,21,06,13,7.80
2014,09,21,06,14,7.80
2014,09,21,06,15,7.80
2014,09,21,06,16,7.80
2014,09,21,06,17,7.80
2014,09,21,06,18,7.80
2014,09,21,06,19,7.80
2014,09,21,06,20,7.70
2014,09,21,06,21,7.70
2014,09,21,06,22,7.70
2014,09,21,06,23,7.70
2014,09,21,06,24,7.70
2014,09,21,06,25,7.70
2014,09,21,06,26,7.70
2014,09,21,06,27,7.70
2014,09,21,06,28,7.70
2014,09,21,06,29,7.60
2014,09,21,06,30,7.60
2014,09,21,06,31,7.60
2014,09,21,06,32,7.50
2014,09,21,06,33,7.50
2014,09,21,06,34,7.50
2014,09,21,06,35,7.40
2014,09,21,06,36,7.40
2014,09,21,06,37,7.40
2014,09,21,06,38,7.40
2014,09,21,06,39,7.40
2014,09,21,06,40,7.30
2014,09,21,06,41,7.30
2014,09,21,06,42,7.30
2014,09,21,06,43,7.40
2014,09,21,06,44,7.40
2014,09,21,06,45,7.40
2014,09,21,06,46,7.40
2014,09,21,06,47,7.40
2014,09,21,06,48,7.50
2014,09,21,06,49,7.50
2014,09,21,06,50,7.50
2014,09,21,06,51,7.60
2014,09,21,06,52,7.60
2014,09,21,06,53,7.60
2014,09,21,06,54,7.60
2014,09,21,06,55,7.60
2014,09,21,06,56,7.60
2014,09,21,06,57,7.60
2014,09,21,06,58,7.60
2014,09,21,06,59,7.60
2014,09,21,07,00,7.60
2014,09,21,07,01,7.60
2014,09,21,07,02,7.60
2014,09,21,07,03,7.60
2014,09,21,07,04,7.60
2014,09,21,07,05,7.60
2014,09,21,07,06,7.60
2014,09,21,07,07,7.50
2014,09,21,07,08,7.50
2014,09,21,07,09,7.40
2014,09,21,07,10,7.40
2014,09,21,07,11,7.30
2014,09,21,07,12,7.30
2014,09,21,07,13,7.30
2014,09,21,07,14,7.30
2014,09,21,07,15,7.30
2014,09,21,07,16,7.30
2014,09,21,07,17,7.20
2014,09,21,07,18,7.30
2014,09,21,07,19,7.30
2014,09,21,07,20,7.30
2014,09,21,07,21,7.30
2014,09,21,07,22,7.30
2014,09,21,07,23,7.40
2014,09,21,07,24,7.40
2014,09,21,07,25,7.40
2014,09,21,07,26,7.50
2014,09,21,07,27,7.50
2014,09,21,07,28,7.50
2014,09,21,07,29,7.60
2014,09,21,07,30,7.60
2014,09,21,07,31,7.60
2014,09,21,07,32,7.70
2014,09,21,07,33,7.70
2014,09,21,07,34,7.70
2014,09,21,07,35,7.70
2014,09,21,07,36,7.70
2014,09,21,07,37,7.70
2014,09,21,07,38,7.70
2014,09,21,07,39,7.70
2014,09,21,07,40,7.70
2014,09,21,07,41,7.70
2014,09,21,07,42,7.70
2014,09,21,07,43,7.70
2014,09,21,07,44,7.70
2014,09,21,07,45,7.70
2014,09,21,07,46,7.70
2014,09,21,07,47,7.60
2014,09,21,07,48,7.60
2014,09,21,07,49,7.50
2014,09,21,07,50,7.50
2014,09,21,07,51,7.50
2014,09,21,07,52,7.50
2014,09,21,07,53,7.50
2014,09,21,07,54,7.50
2014,09,21,07,55,7.50
2014,09,21,07,56,7.50
2014,09,21,07,57,7.60
2014,09,21,07,58,7.60
2014,09,21,07,59,7.60
2014,09,21,08,00,7.70
2014,09,21,08,01,7.70
2014,09,21,08,02,7.80
2014,09,21,08,03,7.80
2014,09,21,08,04,7.80
2014,09,21,08,05,7.90
2014,09,21,08,06,7.90
2014,09,21,08,07,8.00
2014,09,21,08,08,8.00
2014,09,21,08,09,8.10
2014,09,21,08,10,8.10
2014,09,21,08,11,8.20
2014,09,21,08,12,8.30
2014,09,21,08,13,8.30
2014,09,21,08,14,8.40
2014,09,21,08,15,8.40
2014,09,21,08,16,8.50
2014,09,21,08,17,8.60
2014,09,21,08,18,8.60
2014,09,21,08,19,8.70
2014,09,21,08,20,8.70
2014,09,21,08,21,8.70
2014,09,21,08,22,8.80
2014,09,21,08,23,8.80
2014,09,21,08,24,8.90
2014,09,21,08,25,8.90
2014,09,21,08,26,9.00
2014,09,21,08,27,9.00
2014,09,21,08,28,9.10
2014,09,21,08,29,9.20
2014,09,21,08,30,9.30
2014,09,21,08,31,9.30
2014,09,21,08,32,9.40
2014,09,21,08,33,9.50
2014,09,21,08,34,9.60
2014,09,21,08,35,9.60
2014,09,21,08,36,9.70
2014,09,21,08,37,9.80
2014,09,21,08,38,9.80
2014,09,21,08,39,9.80
2014,09,21,08,40,9.90
2014,09,21,08,41,10.00
2014,09,21,08,42,10.10
2014,09,21,08,43,10.10
2014,09,21,08,44,10.20
2014,09,21,08,45,10.20
2014,09,21,08,46,10.30
2014,09,21,08,47,10.30
2014,09,21,08,48,10.40
2014,09,21,08,49,10.40
2014,09,21,08,50,10.50
2014,09,21,08,51,10.50
2014,09,21,08,52,10.60
2014,09,21,08,53,10.60
2014,09,21,08,54,10.70
2014,09,21,08,55,10.70
2014,09,21,08,56,10.70
2014,09,21,08,57,10.80
2014,09,21,08,58,10.80
2014,09,21,08,59,10.80
2014,09,21,09,00,10.90
2014,09,21,09,01,10.90
2014,09,21,09,02,10.90
2014,09,21,09,03,11.00
2014,09,21,09,04,11.00
2014,09,21,09,05,11.10
2014,09,21,09,06,11.10
2014,09,21,09,07,11.20
2014,09,21,09,08,11.20
2014,09,21,09,09,11.30
2014,09,21,09,10,11.40
2014,09,21,09,11,11.50
2014,09,21,09,12,11.60
2014,09,21,09,13,11.70
2014,09,21,09,14,11.80
2014,09,21,09,15,11.90
2014,09,21,09,16,12.00
2014,09,21,09,17,12.10
2014,09,21,09,18,12.10
2014,09,21,09,19,12.20
2014,09,21,09,20,12.20
2014,09,21,09,21,12.20
2014,09,21,09,22,12.20
2014,09,21,09,23,12.30
2014,09,21,09,24,12.30
2014,09,21,09,25,12.30
2014,09,21,09,26,12.40
2014,09,21,09,27,12.50
2014,09,21,09,28,12.60
2014,09,21,09,29,12.70
2014,09,21,09,30,12.80
2014,09,21,09,31,12.90
2014,09,21,09,32,13.00
2014,09,21,09,33,13.10
2014,09,21,09,34,13.20
2014,09,21,09,35,13.20
2014,09,21,09,36,13.30
2014,09,21,09,37,13.40
2014,09,21,09,38,13.50
2014,09,21,09,39,13.50
2014,09,21,09,40,13.60
2014,09,21,09,41,13.70
2014,09,21,09,42,13.70
2014,09,21,09,43,13.70
2014,09,21,09,44,13.80
2014,09,21,09,45,13.80
2014,09,21,09,46,13.90
2014,09,21,09,47,14.00
2014,09,21,09,48,14.00
2014,09,21,09,49,14.10
2014,09,21,09,50,14.10
2014,09,21,09,51,14.10
2014,09,21,09,52,14.10
2014,09,21,09,53,14.20
2014,09,21,09,54,14.20
2014,09,21,09,55,14.30
2014,09,21,09,56,14.40
2014,09,21,09,57,14.50
2014,09,21,09,58,14.60
2014,09,21,09,59,14.70
2014,09,21,10,00,14.70
2014,09,21,10,01,14.80
2014,09,21,10,02,14.90
2014,09,21,10,03,14.90
2014,09,21,10,04,14.90
2014,09,21,10,05,14.90
2014,09,21,10,06,14.90
2014,09,21,10,07,14.90
2014,09,21,10,08,14.90
2014,09,21,10,09,14.90
2014,09,21,10,10,15.00
2014,09,21,10,11,15.00
2014,09,21,10,12,15.10
2014,09,21,10,13,15.10
2014,09,21,10,14,15.20
2014,09,21,10,15,15.20
2014,09,21,10,16,15.20
2014,09,21,10,17,15.30
2014,09,21,10,18,15.40
2014,09,21,10,19,15.50
2014,09,21,10,20,15.50
2014,09,21,10,21,15.60
2014,09,21,10,22,15.60
2014,09,21,10,23,15.60
2014,09,21,10,24,15.70
2014,09,21,10,25,15.70
2014,09,21,10,26,15.80
2014,09,21,10,27,15.80
2014,09,21,10,28,15.90
2014,09,21,10,29,16.00
2014,09,21,10,30,16.00
2014,09,21,10,31,16.10
2014,09,21,10,32,16.10
2014,09,21,10,33,16.20
2014,09,21,10,34,16.30
2014,09,21,10,35,16.40
2014,09,21,10,36,16.60
2014,09,21,10,37,16.70
2014,09,21,10,38,16.80
2014,09,21,10,39,16.90
2014,09,21,10,40,17.00
2014,09,21,10,41,17.10
2014,09,21,10,42,17.10
2014,09,21,10,43,17.10
2014,09,21,10,44,17.10
2014,09,21,10,45,17.20
2014,09,21,10,46,17.20
2014,09,21,10,47,17.30
2014,09,21,10,48,17.40
2014,09,21,10,49,17.40
2014,09,21,10,50,17.40
2014,09,21,10,51,17.40
2014,09,21,10,52,17.50
2014,09,21,10,53,17.50
2014,09,21,10,54,17.50
2014,09,21,10,55,17.60
2014,09,21,10,56,17.60
2014,09,21,10,57,17.60
2014,09,21,10,58,17.60
2014,09,21,10,59,17.70
2014,09,21,11,00,17.70
2014,09,21,11,01,17.70
2014,09,21,11,02,17.80
2014,09,21,11,03,17.80
2014,09,21,11,04,17.90
2014,09,21,11,05,17.90
2014,09,21,11,06,18.00
2014,09,21,11,07,18.00
2014,09,21,11,08,18.10
2014,09,21,11,09,18.10
2014,09,21,11,10,18.20
2014,09,21,11,11,18.20
2014,09,21,11,12,18.30
2014,09,21,11,13,18.30
2014,09,21,11,14,18.40
2014,09,21,11,15,18.40
2014,09,21,11,16,18.50
2014,09,21,11,17,18.60
2014,09,21,11,18,18.60
2014,09,21,11,19,18.70
2014,09,21,11,20,18.70
2014,09,21,11,21,18.80
2014,09,21,11,22,18.80
2014,09,21,11,23,18.90
2014,09,21,11,24,18.90
2014,09,21,11,25,19.00
2014,09,21,11,26,19.10
2014,09,21,11,27,19.10
2014,09,21,11,28,19.20
2014,09,21,11,29,19.30
2014,09,21,11,30,19.30
2014,09,21,11,31,19.40
2014,09,21,11,32,19.50
2014,09,21,11,33,19.60
2014,09,21,11,34,19.70
2014,09,21,11,35,19.80
2014,09,21,11,36,20.00
2014,09,21,11,37,20.10
2014,09,21,11,38,20.30
2014,09,21,11,39,20.40
2014,09,21,11,40,20.50
2014,09,21,11,41,20.60
2014,09,21,11,42,20.80
2014,09,21,11,43,20.90
2014,09,21,11,44,21.10
2014,09,21,11,45,21.20
2014,09,21,11,46,21.20
2014,09,21,11,47,21.30
2014,09,21,11,48,21.40
2014,09,21,11,49,21.40
2014,09,21,11,50,21.50
2014,09,21,11,51,21.50
2014,09,21,11,52,21.60
2014,09,21,11,53,21.60
2014,09,21,11,54,21.60
2014,09,21,11,55,21.70
2014,09,21,11,56,21.80
2014,09,21,11,57,21.80
2014,09,21,11,58,21.90
2014,09,21,11,59,21.90
2014,09,21,12,00,21.90
2014,09,21,12,01,22.00
2014,09,21,12,02,22.00
2014,09,21,12,03,22.10
2014,09,21,12,04,22.20
2014,09,21,12,05,22.20
2014,09,21,12,06,22.30
2014,09,21,12,07,22.30
2014,09,21,12,08,22.40
2014,09,21,12,09,22.40
2014,09,21,12,10,22.40
2014,09,21,12,11,22.40
2014,09,21,12,12,22.40
2014,09,21,12,13,22.50
2014,09,21,12,14,22.50
2014,09,21,12,15,22.50
2014,09,21,12,16,22.50
2014,09,21,12,17,22.50
2014,09,21,12,18,22.50
2014,09,21,12,19,22.50
2014,09,21,12,20,22.60
2014,09,21,12,21,22.60
2014,09,21,12,22,22.50
2014,09,21,12,23,22.50
2014,09,21,12,24,22.50
2014,09,21,12,25,22.50
2014,09,21,12,26,22.60
2014,09,21,12,27,22.60
2014,09,21,12,28,22.60
2014,09,21,12,29,22.60
2014,09,21,12,30,22.70
2014,09,21,12,31,22.70
2014,09,21,12,32,22.70
2014,09,21,12,33,22.60
2014,09,21,12,34,22.60
2014,09,21,12,35,22.70
2014,09,21,12,36,22.80
2014,09,21,12,37,22.80
2014,09,21,12,38,22.90
2014,09,21,12,39,22.90
2014,09,21,12,40,23.00
2014,09,21,12,41,23.00
2014,09,21,12,42,23.10
2014,09,21,12,43,23.10
2014,09,21,12,44,23.10
2014,09,21,12,45,23.10
2014,09,21,12,46,23.10
2014,09,21,12,47,23.20
2014,09,21,12,48,23.20
2014,09,21,12,49,23.30
2014,09,21,12,50,23.30
2014,09,21,12,51,23.30
2014,09,21,12,52,23.30
2014,09,21,12,53,23.40
2014,09,21,12,54,23.40
2014,09,21,12,55,23.40
2014,09,21,12,56,23.40
2014,09,21,12,57,23.40
2014,09,21,12,58,23.40
2014,09,21,12,59,23.50
2014,09,21,13,00,23.50
2014,09,21,13,01,23.50
2014,09,21,13,02,23.50
2014,09,21,13,03,23.50
2014,09,21,13,04,23.40
2014,09,21,13,05,23.40
2014,09,21,13,06,23.30
2014,09,21,13,07,23.30
2014,09,21,13,08,23.30
2014,09,21,13,09,23.40
2014,09,21,13,10,23.40
2014,09,21,13,11,23.50
2014,09,21,13,12,23.50
2014,09,21,13,13,23.60
2014,09,21,13,14,23.60
2014,09,21,13,15,23.60
2014,09,21,13,16,23.60
2014,09,21,13,17,23.60
2014,09,21,13,18,23.60
2014,09,21,13,19,23.60
2014,09,21,13,20,23.60
2014,09,21,13,21,23.70
2014,09,21,13,22,23.70
2014,09,21,13,23,23.70
2014,09,21,13,24,23.60
2014,09,21,13,25,23.60
2014,09,21,13,26,23.60
2014,09,21,13,27,23.60
2014,09,21,13,28,23.50
2014,09,21,13,29,23.50
2014,09,21,13,30,23.60
2014,09,21,13,31,23.60
2014,09,21,13,32,23.70
2014,09,21,13,33,23.70
2014,09,21,13,34,23.80
2014,09,21,13,35,23.80
2014,09,21,13,36,23.80
2014,09,21,13,37,23.80
2014,09,21,13,38,23.80
2014,09,21,13,39,23.80
2014,09,21,13,40,23.80
2014,09,21,13,41,23.80
2014,09,21,13,42,23.80
2014,09,21,13,43,23.80
2014,09,21,13,44,23.80
2014,09,21,13,45,23.90
2014,09,21,13,46,23.90
2014,09,21,13,47,24.00
2014,09,21,13,48,24.00
2014,09,21,13,49,24.00
2014,09,21,13,50,23.90
2014,09,21,13,51,23.90
2014,09,21,13,52,23.90
2014,09,21,13,53,23.90
2014,09,21,13,54,23.90
2014,09,21,13,55,23.90
2014,09,21,13,56,23.90
2014,09,21,13,57,23.90
2014,09,21,13,58,24.00
2014,09,21,13,59,24.10
2014,09,21,14,00,24.10
2014,09,21,14,01,24.20
2014,09,21,14,02,24.20
2014,09,21,14,03,24.20
2014,09,21,14,04,24.20
2014,09,21,14,05,24.30
2014,09,21,14,06,24.30
2014,09,21,14,07,24.30
2014,09,21,14,08,24.30
2014,09,21,14,09,24.30
2014,09,21,14,10,24.30
2014,09,21,14,11,24.30
2014,09,21,14,12,24.30
2014,09,21,14,13,24.30
2014,09,21,14,14,24.30
2014,09,21,14,15,24.30
2014,09,21,14,16,24.30
2014,09,21,14,17,24.30
2014,09,21,14,18,24.40
2014,09,21,14,19,24.40
2014,09,21,14,20,24.40
2014,09,21,14,21,24.50
2014,09,21,14,22,24.50
2014,09,21,14,23,24.50
2014,09,21,14,24,24.60
2014,09,21,14,25,24.60
2014,09,21,14,26,24.60
2014,09,21,14,27,24.50
2014,09,21,14,28,24.60
2014,09,21,14,29,24.60
2014,09,21,14,30,24.60
2014,09,21,14,31,24.60
2014,09,21,14,32,24.70
2014,09,21,14,33,24.70
2014,09,21,14,34,24.70
2014,09,21,14,35,24.70
2014,09,21,14,36,24.70
2014,09,21,14,37,24.70
2014,09,21,14,38,24.80
2014,09,21,14,39,24.80
2014,09,21,14,40,24.80
2014,09,21,14,41,24.90
2014,09,21,14,42,24.90
2014,09,21,14,43,24.90
2014,09,21,14,44,24.90
2014,09,21,14,45,25.00
2014,09,21,14,46,25.00
2014,09,21,14,47,25.10
2014,09,21,14,48,25.20
2014,09,21,14,49,25.30
2014,09,21,14,50,25.30
2014,09,21,14,51,25.30
2014,09,21,14,52,25.30
2014,09,21,14,53,25.30
2014,09,21,14,54,25.30
2014,09,21,14,55,25.30
2014,09,21,14,56,25.30
2014,09,21,14,57,25.30
2014,09,21,14,58,25.40
2014,09,21,14,59,25.40
2014,09,21,15,00,25.40
2014,09,21,15,01,25.40
2014,09,21,15,02,25.40
2014,09,21,15,03,25.50
2014,09,21,15,04,25.50
2014,09,21,15,05,25.50
2014,09,21,15,06,25.60
2014,09,21,15,07,25.60
2014,09,21,15,08,25.70
2014,09,21,15,09,25.80
2014,09,21,15,10,25.80
2014,09,21,15,11,25.80
2014,09,21,15,12,25.80
2014,09,21,15,13,25.80
2014,09,21,15,14,25.80
2014,09,21,15,15,25.70
2014,09,21,15,16,25.70
2014,09,21,15,17,25.70
2014,09,21,15,18,25.70
2014,09,21,15,19,25.60
2014,09,21,15,20,25.60
2014,09,21,15,21,25.60
2014,09,21,15,22,25.60
2014,09,21,15,23,25.60
2014,09,21,15,24,25.60
2014,09,21,15,25,25.60
2014,09,21,15,26,25.60
2014,09,21,15,27,25.60
2014,09,21,15,28,25.60
2014,09,21,15,29,25.60
2014,09,21,15,30,25.70
2014,09,21,15,31,25.70
2014,09,21,15,32,25.80
2014,09,21,15,33,25.80
2014,09,21,15,34,25.90
2014,09,21,15,35,25.90
2014,09,21,15,36,26.00
2014,09,21,15,37,26.00
2014,09,21,15,38,26.00
2014,09,21,15,39,26.10
2014,09,21,15,40,26.10
2014,09,21,15,41,26.20
2014,09,21,15,42,26.10
2014,09,21,15,43,26.10
2014,09,21,15,44,26.00
2014,09,21,15,45,26.00
2014,09,21,15,46,25.90
2014,09,21,15,47,25.80
2014,09,21,15,48,25.80
2014,09,21,15,49,25.80
2014,09,21,15,50,25.80
2014,09,21,15,51,25.80
2014,09,21,15,52,25.80
2014,09,21,15,53,25.80
2014,09,21,15,54,25.90
2014,09,21,15,55,25.90
2014,09,21,15,56,25.90
2014,09,21,15,57,25.90
2014,09,21,15,58,25.90
2014,09,21,15,59,25.80
2014,09,21,16,00,25.80
2014,09,21,16,01,25.80
2014,09,21,16,02,25.90
2014,09,21,16,03,25.90
2014,09,21,16,04,25.90
2014,09,21,16,05,25.90
2014,09,21,16,06,26.00
2014,09,21,16,07,26.00
2014,09,21,16,08,26.00
2014,09,21,16,09,26.00
2014,09,21,16,10,26.00
2014,09,21,16,11,25.90
2014,09,21,16,12,25.90
2014,09,21,16,13,25.90
2014,09,21,16,14,25.90
2014,09,21,16,15,25.90
2014,09,21,16,16,25.90
2014,09,21,16,17,25.90
2014,09,21,16,18,25.90
2014,09,21,16,19,25.90
2014,09,21,16,20,25.90
2014,09,21,16,21,25.90
2014,09,21,16,22,25.90
2014,09,21,16,23,25.90
2014,09,21,16,24,25.90
2014,09,21,16,25,25.80
2014,09,21,16,26,25.80
2014,09,21,16,27,25.70
2014,09,21,16,28,25.70
2014,09,21,16,29,25.70
2014,09,21,16,30,25.70
2014,09,21,16,31,25.70
2014,09,21,16,32,25.70
2014,09,21,16,33,25.60
2014,09,21,16,34,25.50
2014,09,21,16,35,25.40
2014,09,21,16,36,25.40
2014,09,21,16,37,25.40
2014,09,21,16,38,25.30
2014,09,21,16,39,25.30
2014,09,21,16,40,25.30
2014,09,21,16,41,25.30
2014,09,21,16,42,25.30
2014,09,21,16,43,25.30
2014,09,21,16,44,25.30
2014,09,21,16,45,25.30
2014,09,21,16,46,25.30
2014,09,21,16,47,25.20
2014,09,21,16,48,25.20
2014,09,21,16,49,25.20
2014,09,21,16,50,25.20
2014,09,21,16,51,25.20
2014,09,21,16,52,25.20
2014,09,21,16,53,25.20
2014,09,21,16,54,25.20
2014,09,21,16,55,25.20
2014,09,21,16,56,25.10
2014,09,21,16,57,25.10
2014,09,21,16,58,25.10
2014,09,21,16,59,25.10
2014,09,21,17,00,25.10
2014,09,21,17,01,25.10
2014,09,21,17,02,25.10
2014,09,21,17,03,25.10
2014,09,21,17,04,25.10
2014,09,21,17,05,25.10
2014,09,21,17,06,25.10
2014,09,21,17,07,25.10
2014,09,21,17,08,25.10
2014,09,21,17,09,25.10
2014,09,21,17,10,25.10
2014,09,21,17,11,25.10
2014,09,21,17,12,25.10
2014,09,21,17,13,25.10
2014,09,21,17,14,25.10
2014,09,21,17,15,25.00
2014,09,21,17,16,25.00
2014,09,21,17,17,25.00
2014,09,21,17,18,25.00
2014,09,21,17,19,24.90
2014,09,21,17,20,24.90
2014,09,21,17,21,24.90
2014,09,21,17,22,24.80
2014,09,21,17,23,24.80
2014,09,21,17,24,24.70
2014,09,21,17,25,24.70
2014,09,21,17,26,24.70
2014,09,21,17,27,24.60
2014,09,21,17,28,24.60
2014,09,21,17,29,24.60
2014,09,21,17,30,24.50
2014,09,21,17,31,24.50
2014,09,21,17,32,24.50
2014,09,21,17,33,24.50
2014,09,21,17,34,24.50
2014,09,21,17,35,24.40
2014,09,21,17,36,24.40
2014,09,21,17,37,24.40
2014,09,21,17,38,24.40
2014,09,21,17,39,24.50